KF2XN Weather Reports


Display with metric or nautical units.
time (UTC)temp
F
wind
direction
speed
MPH
gust
MPH
rain 1hr
in
rain 24hr
in
rain mn
in
humidity
%
barometer
mb
20260509200011 62 185 6.0 14.0 0.00 0.00 0.00 70 1003.9
20260509194509 63 200 8.0 14.0 0.00 0.00 0.00 68 1003.9
20260509193006 62 234 11.0 16.0 0.00 0.00 0.00 68 1004.0
20260509191502 62 216 7.0 16.0 0.00 0.00 0.00 68 1004.6
20260509190002 62 278 6.0 17.0 0.00 0.00 0.00 72 1004.8
20260509184600 61 212 4.0 18.0 0.00 0.00 0.00 72 1004.8
20260509183059 62 212 10.0 16.0 0.00 0.00 0.00 70 1005.1
20260509181604 61 186 9.0 17.0 0.00 0.00 0.00 71 1004.9
20260509180058 61 192 9.0 17.0 0.00 0.00 0.00 69 1005.1
20260509174602 61 210 8.0 14.0 0.00 0.00 0.00 72 1005.2
20260509173059 60 226 7.0 15.0 0.00 0.00 0.00 74 1005.6
20260509171552 60 219 8.0 17.0 0.00 0.00 0.00 74 1006.0
20260509170046 59 198 7.0 12.0 0.00 0.00 0.00 77 1006.0
20260509164545 59 261 6.0 14.0 0.00 0.00 0.00 75 1006.0
20260509163045 59 213 6.0 12.0 0.00 0.00 0.00 77 1006.2
20260509161538 59 190 6.0 12.0 0.00 0.00 0.00 76 1006.4
20260509160037 59 234 8.0 14.0 0.00 0.00 0.00 75 1006.4
20260509154536 59 268 5.0 11.0 0.00 0.00 0.00 77 1006.3
20260509153035 58 141 5.0 10.0 0.00 0.00 0.00 78 1006.4
20260509151534 57 167 4.0 9.0 0.00 0.00 0.00 80 1006.3
20260509150031 57 223 4.0 10.0 0.00 0.00 0.00 79 1006.5
20260509144529 57 223 4.0 10.0 0.00 0.00 0.00 80 1006.6
20260509143031 57 216 5.0 11.0 0.00 0.00 0.00 82 1006.6
20260509141526 56 235 7.0 11.0 0.00 0.00 0.00 82 1006.7
20260509140034 56 210 4.0 9.0 0.00 0.00 0.00 84 1006.7
20260509134520 55 237 6.0 10.0 0.00 0.00 0.00 84 1007.1
20260509133019 55 200 5.0 11.0 0.00 0.00 0.00 84 1007.0
20260509131529 55 181 5.0 10.0 0.00 0.00 0.00 84 1007.1
20260509130024 55 194 5.0 9.0 0.00 0.00 0.00 85 1007.1
20260509124520 54 138 4.0 8.0 0.00 0.01 0.00 87 1007.1
20260509123009 53 190 3.0 7.0 0.00 0.01 0.00 88 1007.2
20260509121510 52 201 2.0 5.0 0.00 0.01 0.00 89 1007.4
20260509120002 51 140 3.0 8.0 0.00 0.04 0.00 90 1007.3
20260509114559 49 195 2.0 5.0 0.00 0.04 0.00 91 1007.4
20260509113055 48 188 1.0 3.0 0.00 0.04 0.00 92 1007.4
20260509111524 46 110 0.0 1.0 0.00 0.04 0.00 92 1007.4
20260509110023 44 93 0.0 1.0 0.00 0.04 0.00 92 1007.4
20260509104523 42 93 0.0 1.0 0.00 0.08 0.00 91 1007.5
20260509103018 41 93 0.0 0.0 0.00 0.08 0.00 91 1007.6
20260509101520 40 93 0.0 1.0 0.00 0.08 0.00 90 1007.6
20260509100016 40 93 0.0 0.0 0.00 0.08 0.00 89 1007.6
20260509094515 40 93 0.0 1.0 0.00 0.08 0.00 89 1007.6
20260509093011 40 94 0.0 0.0 0.00 0.08 0.00 87 1007.6
20260509091508 41 94 0.0 0.0 0.00 0.08 0.00 86 1007.5
20260509090009 42 93 0.0 0.0 0.00 0.08 0.00 84 1007.6
20260509084511 42 93 0.0 0.0 0.00 0.08 0.00 83 1007.6
20260509083102 43 93 0.0 0.0 0.00 0.08 0.00 81 1007.7
20260509081558 43 93 0.0 0.0 0.00 0.08 0.00 80 1007.8
20260509074556 44 115 0.0 3.0 0.00 0.08 0.00 76 1007.9
20260509073054 44 103 1.0 3.0 0.00 0.08 0.00 75 1008.0
20260509071550 44 119 1.0 3.0 0.00 0.08 0.00 74 1008.2
20260509070047 44 97 1.0 3.0 0.00 0.08 0.00 74 1008.2
20260509064547 44 129 1.0 4.0 0.00 0.08 0.00 74 1008.4
20260509063043 43 122 2.0 4.0 0.00 0.08 0.00 76 1008.6
20260509061540 42 79 0.0 2.0 0.00 0.08 0.00 78 1008.7
20260509060031 42 95 0.0 1.0 0.00 0.08 0.00 80 1009.0
20260509054528 42 95 0.0 1.0 0.00 0.09 0.00 79 1009.3
20260509053020 44 95 0.0 1.0 0.00 0.09 0.00 73 1009.3
20260509051517 44 98 0.0 1.0 0.00 0.09 0.00 73 1009.6
20260509050016 44 79 0.0 2.0 0.00 0.09 0.00 75 1009.5
20260509044513 46 129 0.0 2.0 0.00 0.09 0.00 73 1009.7
20260509043006 46 179 2.0 3.0 0.00 0.09 0.00 72 1009.8
20260509041502 45 188 1.0 2.0 0.00 0.09 0.00 71 1010.0
20260509040123 45 189 0.0 2.0 0.00 0.09 0.00 69 1010.0
20260509034607 45 137 1.0 3.0 0.00 0.09 0.09 70 1010.1
20260509033059 44 193 0.0 2.0 0.00 0.09 0.09 71 1010.2
20260509031604 44 171 0.0 2.0 0.00 0.09 0.09 71 1010.4
20260509030054 43 179 0.0 1.0 0.00 0.09 0.09 73 1010.5
20260509024553 43 182 0.0 0.0 0.00 0.09 0.09 72 1010.6
20260509023053 43 182 0.0 1.0 0.00 0.09 0.09 71 1010.6
20260509021549 43 188 0.0 2.0 0.00 0.09 0.09 72 1010.7
20260509020053 43 193 0.0 0.0 0.00 0.09 0.09 71 1010.6
20260509014556 44 193 0.0 0.0 0.00 0.14 0.09 67 1010.3
20260509013052 45 193 0.0 1.0 0.00 0.14 0.09 62 1010.2
20260509011544 46 194 0.0 0.0 0.00 0.14 0.09 58 1010.1
20260509010052 48 193 0.0 0.0 0.00 0.14 0.09 48 1010.1
20260509004542 49 193 0.0 1.0 0.00 0.15 0.09 45 1010.1
20260509003045 50 199 1.0 2.0 0.00 0.15 0.09 43 1010.2
20260509001529 51 199 1.0 3.0 0.00 0.15 0.09 41 1010.1
20260509000028 52 174 2.0 4.0 0.00 0.15 0.09 37 1009.9
20260508234528 53 152 1.0 7.0 0.00 0.22 0.09 37 1009.8
20260508233025 54 199 2.0 6.0 0.00 0.22 0.09 36 1009.8
20260508231523 54 198 3.0 7.0 0.00 0.22 0.09 38 1009.8
20260508230034 54 202 2.0 6.0 0.00 0.22 0.09 43 1009.8
20260508224528 55 198 4.0 8.0 0.00 0.22 0.09 42 1009.7
20260508223016 55 257 5.0 9.0 0.00 0.22 0.09 42 1009.8
20260508221534 55 173 2.0 8.0 0.00 0.22 0.09 42 1009.9
20260508220017 56 169 3.0 7.0 0.00 0.22 0.09 42 1009.9
20260508214513 56 204 3.0 7.0 0.00 0.22 0.09 44 1009.9
20260508213018 56 240 3.0 8.0 0.00 0.22 0.09 47 1010.0
20260508211510 56 234 3.0 7.0 0.00 0.22 0.09 44 1009.9
20260508210004 55 233 3.0 8.0 0.00 0.22 0.09 47 1010.0
20260508204510 55 251 4.0 9.0 0.00 0.22 0.09 49 1010.1
20260508203106 55 252 4.0 9.0 0.00 0.22 0.09 49 1010.2
20260508201556 55 245 6.0 10.0 0.00 0.22 0.09 51 1010.3